GW1984 Weather Reports


time (UTC)temp
C
wind
direction
speed
KPH
gust
KPH
rain 1hr
cm
rain 24hr
cm
rain mn
cm
humidity
%
barometer
mb
20260504081014 10 165 6.4 9.7 0.00 0.05 0.00 77 1003.8
20260504080511 10 148 3.2 8.0 0.00 0.05 0.00 75 1003.8
20260504050512 12 161 8.0 12.9 0.00 0.05 0.00 70 1005.6
20260504045512 12 184 8.0 9.7 0.00 0.05 0.05 70 1005.6
20260504045011 13 161 6.4 11.3 0.00 0.05 0.05 70 1005.7
20260504044530 13 165 8.0 14.5 0.00 0.05 0.05 69 1005.6
20260504044013 13 172 8.0 14.5 0.00 0.05 0.05 69 1005.6
20260504043514 13 169 8.0 12.9 0.00 0.05 0.05 69 1005.5
20260504043032 13 180 6.4 9.7 0.00 0.05 0.05 68 1005.6
20260504042513 13 187 4.8 9.7 0.00 0.05 0.05 67 1005.6
20260504042015 13 184 6.4 11.3 0.00 0.05 0.05 67 1005.5
20260504041534 13 189 8.0 14.5 0.00 0.05 0.05 67 1005.5
20260504041014 13 184 8.0 14.5 0.00 0.05 0.05 67 1005.6
20260504040514 14 173 4.8 11.3 0.00 0.05 0.05 66 1005.6
20260504040031 14 186 6.4 11.3 0.00 0.05 0.05 65 1005.5
20260504035512 14 185 6.4 11.3 0.00 0.05 0.05 65 1005.5
20260504035012 14 190 6.4 9.7 0.00 0.05 0.05 64 1005.6
20260504034530 15 170 6.4 9.7 0.00 0.05 0.05 64 1005.6
20260504034012 15 182 6.4 11.3 0.00 0.05 0.05 63 1005.6
20260504033511 15 202 6.4 12.9 0.00 0.05 0.05 63 1005.6
20260504033032 15 170 6.4 12.9 0.00 0.05 0.05 63 1005.5
20260504032514 15 202 4.8 11.3 0.00 0.05 0.05 62 1005.6
20260504032013 15 219 6.4 12.9 0.00 0.05 0.05 61 1005.6
20260504031535 15 181 8.0 14.5 0.00 0.05 0.05 61 1005.5
20260504031015 16 194 6.4 14.5 0.00 0.05 0.05 60 1005.5
20260504030512 16 171 6.4 12.9 0.00 0.05 0.05 60 1005.6
20260504030030 16 198 8.0 12.9 0.00 0.05 0.05 60 1005.4
20260504025511 16 221 4.8 14.5 0.00 0.05 0.05 59 1005.4
20260504025014 16 196 6.4 14.5 0.00 0.05 0.05 59 1005.3
20260504024529 16 226 8.0 14.5 0.00 0.05 0.05 58 1005.2
20260504024012 16 184 8.0 12.9 0.00 0.05 0.05 58 1005.2
20260504023512 16 216 8.0 12.9 0.00 0.05 0.05 57 1005.3
20260504023031 16 192 6.4 14.5 0.00 0.05 0.05 57 1005.2
20260504022516 16 212 8.0 14.5 0.00 0.05 0.05 57 1005.2
20260504022015 16 185 8.0 12.9 0.00 0.05 0.05 57 1005.2
20260504021530 16 192 8.0 12.9 0.00 0.05 0.05 56 1005.1
20260504021015 17 190 8.0 12.9 0.00 0.05 0.05 55 1005.1
20260504020511 17 178 6.4 11.3 0.00 0.05 0.05 54 1005.1
20260504020032 17 173 6.4 9.7 0.00 0.05 0.05 53 1005.1
20260504015514 17 178 4.8 11.3 0.00 0.05 0.05 52 1005.1
20260504015018 17 180 6.4 12.9 0.00 0.05 0.05 52 1005.0
20260504014534 17 190 8.0 14.5 0.00 0.05 0.05 51 1005.0
20260504014014 17 203 8.0 14.5 0.00 0.05 0.05 51 1005.0
20260504013514 17 194 8.0 12.9 0.00 0.05 0.05 52 1004.9
20260504013040 17 182 8.0 12.9 0.00 0.05 0.05 52 1004.9
20260504012514 17 173 8.0 11.3 0.00 0.05 0.05 52 1004.9
20260504012014 17 175 6.4 9.7 0.00 0.05 0.05 51 1004.9
20260504011534 18 180 6.4 12.9 0.00 0.05 0.05 50 1004.8
20260504011013 18 184 6.4 12.9 0.00 0.05 0.05 49 1004.8
20260504010513 18 203 4.8 8.0 0.00 0.05 0.05 49 1004.8
20260504010030 18 222 1.6 4.8 0.00 0.05 0.05 48 1004.7
20260504005514 18 225 1.6 4.8 0.00 0.05 0.05 48 1004.7
20260504005014 18 213 3.2 8.0 0.00 0.05 0.05 47 1004.7
20260504004534 19 215 3.2 8.0 0.00 0.05 0.05 47 1004.6
20260504004014 19 219 3.2 9.7 0.00 0.05 0.05 47 1004.7
20260504003516 19 244 4.8 9.7 0.00 0.05 0.05 46 1004.6
20260504003033 20 201 4.8 12.9 0.00 0.05 0.05 46 1004.7
20260504002514 20 211 6.4 12.9 0.00 0.05 0.05 45 1004.7
20260504002013 20 221 4.8 14.5 0.00 0.05 0.05 45 1004.7
20260504001537 20 211 6.4 14.5 0.00 0.05 0.05 44 1004.7
20260504001014 20 227 4.8 19.3 0.00 0.05 0.05 44 1004.7
20260504000513 20 211 9.7 19.3 0.00 0.05 0.05 43 1004.7
20260504000032 20 275 4.8 17.7 0.00 0.05 0.05 43 1004.7
20260503235515 20 225 9.7 20.9 0.00 0.05 0.05 42 1004.8
20260503235013 20 252 11.3 20.9 0.00 0.05 0.05 42 1004.7
20260503234539 21 249 11.3 19.3 0.00 0.05 0.05 42 1004.8
20260503234014 21 242 9.7 19.3 0.00 0.05 0.05 42 1004.7
20260503233513 21 224 9.7 22.5 0.00 0.05 0.05 42 1004.8
20260503233039 21 240 12.9 22.5 0.00 0.05 0.05 41 1004.8
20260503232513 21 268 9.7 19.3 0.00 0.05 0.05 42 1004.9
20260503232014 21 265 8.0 19.3 0.00 0.05 0.05 42 1004.9
20260503231534 20 263 14.5 24.1 0.00 0.05 0.05 41 1004.9
20260503231015 20 227 14.5 24.1 0.00 0.05 0.05 42 1005.0
20260503230515 21 254 16.1 25.7 0.00 0.05 0.05 41 1005.1
20260503230030 21 240 14.5 25.7 0.00 0.05 0.05 41 1005.1
20260503225514 21 252 19.3 25.7 0.00 0.05 0.05 41 1005.1
20260503225014 21 267 11.3 27.4 0.00 0.05 0.05 44 1005.1
20260503224529 21 271 16.1 27.4 0.00 0.05 0.05 43 1005.1
20260503224012 20 238 14.5 27.4 0.00 0.05 0.05 44 1005.1
20260503223511 20 246 16.1 27.4 0.00 0.05 0.05 44 1005.2
20260503223029 20 250 19.3 29.0 0.00 0.05 0.05 42 1005.2
20260503222513 20 240 17.7 29.0 0.00 0.05 0.05 43 1005.2
20260503222011 21 225 14.5 30.6 0.00 0.05 0.05 41 1005.3
20260503221535 20 259 19.3 30.6 0.00 0.05 0.05 43 1005.2
20260503221013 21 272 19.3 30.6 0.00 0.05 0.05 43 1005.3
20260503220515 21 240 11.3 25.7 0.00 0.05 0.05 43 1005.2
20260503220030 20 267 17.7 27.4 0.00 0.05 0.05 43 1005.2
20260503215514 20 249 16.1 30.6 0.00 0.05 0.05 43 1005.2
20260503215012 20 227 19.3 33.8 0.00 0.05 0.05 44 1005.2
20260503214531 20 261 17.7 33.8 0.00 0.05 0.05 43 1005.2
20260503214012 20 257 16.1 33.8 0.00 0.05 0.05 44 1005.2
20260503213514 20 205 14.5 33.8 0.00 0.05 0.05 44 1005.3
20260503213033 20 222 14.5 29.0 0.00 0.05 0.05 44 1005.3
20260503212511 20 274 16.1 29.0 0.00 0.05 0.05 44 1005.4
20260503212012 20 252 12.9 29.0 0.00 0.05 0.05 46 1005.4
20260503211529 20 227 12.9 30.6 0.00 0.05 0.05 46 1005.6
20260503211011 20 236 12.9 35.4 0.00 0.05 0.05 46 1005.7
20260503210515 19 240 20.9 35.4 0.00 0.05 0.05 45 1005.7
20260503210033 19 249 19.3 38.6 0.00 0.05 0.05 44 1005.7
20260503205514 19 264 25.7 38.6 0.00 0.05 0.05 44 1005.8
20260503205014 19 236 16.1 33.8 0.00 0.05 0.05 46 1005.9
20260503204532 19 217 20.9 35.4 0.00 0.05 0.05 46 1006.0
20260503204011 19 250 22.5 37.0 0.00 0.05 0.05 46 1006.1
20260503203514 19 233 19.3 37.0 0.00 0.05 0.05 45 1006.1
20260503203033 18 228 22.5 40.2 0.00 0.05 0.05 48 1006.2
20260503202513 18 242 17.7 40.2 0.00 0.05 0.05 47 1006.3
20260503202013 18 254 20.9 37.0 0.00 0.05 0.05 47 1006.3
20260503201532 18 217 19.3 33.8 0.00 0.05 0.05 46 1006.5
20260503201015 18 259 17.7 40.2 0.00 0.05 0.05 46 1006.5
20260503200519 18 243 17.7 40.2 0.00 0.05 0.05 49 1006.6
20260503200031 18 219 20.9 38.6 0.00 0.05 0.05 47 1006.6
20260503195513 18 217 20.9 43.5 0.00 0.05 0.05 49 1006.6
20260503195018 18 242 19.3 43.5 0.00 0.05 0.05 48 1006.8
20260503194535 18 236 24.1 41.8 0.00 0.05 0.05 49 1006.8
20260503194010 17 213 25.7 49.9 0.00 0.05 0.05 48 1006.8
20260503193512 17 209 30.6 49.9 0.00 0.05 0.05 47 1006.9
20260503193028 17 214 25.7 48.3 0.00 0.05 0.05 46 1007.2
20260503192514 17 224 27.4 48.3 0.00 0.05 0.05 48 1007.4
20260503192014 18 228 19.3 41.8 0.00 0.05 0.05 46 1007.4
20260503191534 17 242 19.3 43.5 0.00 0.05 0.05 47 1007.5
20260503191011 17 232 24.1 43.5 0.00 0.05 0.05 48 1007.5
20260503190512 17 217 22.5 49.9 0.00 0.05 0.05 49 1007.6
20260503190030 17 235 20.9 49.9 0.00 0.05 0.05 48 1007.6
20260503185512 17 242 19.3 38.6 0.00 0.05 0.05 55 1007.7
20260503185010 16 183 20.9 43.5 0.00 0.05 0.05 57 1007.7
20260503184531 16 183 25.7 43.5 0.00 0.05 0.05 56 1007.8
20260503184014 16 182 24.1 41.8 0.00 0.05 0.05 57 1008.0
20260503183511 16 180 20.9 43.5 0.00 0.05 0.05 57 1008.1
20260503183031 15 169 24.1 45.1 0.00 0.05 0.05 57 1008.1
20260503182509 15 167 25.7 46.7 0.00 0.05 0.05 59 1008.5
20260503182014 15 209 29.0 46.7 0.00 0.05 0.05 58 1008.4
20260503181528 15 210 29.0 46.7 0.00 0.05 0.05 57 1008.5
20260503181010 15 218 27.4 41.8 0.00 0.05 0.05 55 1008.4
20260503180512 15 173 29.0 41.8 0.00 0.05 0.05 55 1008.5
20260503180032 15 195 20.9 45.1 0.00 0.05 0.05 58 1008.4
20260503175511 15 200 27.4 45.1 0.00 0.05 0.05 55 1008.4
20260503175013 15 209 29.0 49.9 0.00 0.05 0.05 55 1008.4
20260503174529 15 205 30.6 51.5 0.00 0.05 0.05 54 1008.5
20260503174009 15 188 32.2 51.5 0.00 0.05 0.05 55 1008.3
20260503173510 15 169 27.4 51.5 0.00 0.05 0.05 55 1008.4
20260503173030 15 186 30.6 46.7 0.00 0.05 0.05 53 1008.4
20260503172511 15 199 25.7 53.1 0.00 0.05 0.05 54 1008.5
20260503172010 15 180 27.4 53.1 0.00 0.05 0.05 54 1008.5
20260503171530 15 212 20.9 45.1 0.00 0.05 0.05 53 1008.6
20260503171011 15 192 27.4 45.1 0.00 0.05 0.05 54 1008.7
20260503170511 15 152 22.5 57.9 0.00 0.05 0.05 53 1008.7
20260503151009 9 173 6.4 22.5 0.05 0.05 0.05 81 1011.5
20260503150509 9 198 12.9 22.5 0.05 0.05 0.05 81 1011.9
20260503131016 9 195 12.9 22.5 0.00 0.00 0.00 66 1012.7
20260503130510 9 169 12.9 27.4 0.00 0.00 0.00 64 1012.8
20260503110513 8 211 9.7 24.1 0.00 0.00 0.00 59 1012.7
20260503090513 8 207 11.3 19.3 0.00 0.00 0.00 55 1013.1
20260503081530 8 216 11.3 17.7 0.00 0.00 0.00 56 1013.5